Regional Weather Roundup
Issued by NWS Newport/Morehead, NC

Current Version | Previous Version | Graphics & Text | Print | Product List | Glossary Off
Versions: 1 2 3 4 5 6 7 8 9 10 11 12 13 14 15 16 17 18 19 20 21 22 23 24 25 26 27 28 29 30 31 32 33 34 35 36 37 38 39 40 41 42 43 44 45 46 47 48 49 50

000
ASUS42 KMHX 280412
RWRMHX
WEATHER ROUNDUP FOR EASTERN NORTH CAROLINA
NATIONAL WEATHER SERVICE NEWPORT/MOREHEAD CITY NC
1100 PM EST FRI FEB 27 2015

NOTE: "FAIR" INDICATES FEW OR NO CLOUDS BELOW 12,000 FEET
WITH NO SIGNIFICANT WEATHER AND/OR OBSTRUCTIONS TO VISIBILITY

NCZ015>017-031-032-045>047-102-103-280500-
NORTH COAST

CITY           SKY/WX    TMP DP  RH WIND       PRES   REMARKS
EDENTON        CLEAR     30  26  84 E3        30.58R
ELIZABETH CITY CLEAR     31  26  82 NE9       30.58R
KITTY HAWK     CLEAR     34  30  86 N8        30.55R
MANTEO         CLEAR     34  30  86 NE9       30.56R

$$

NCZ045>047-081-094-103-104-280500-
CENTRAL COAST

CITY           SKY/WX    TMP DP  RH WIND       PRES   REMARKS
FRISCO         PTCLDY    36  33  89 NE10G18   30.53R
SWANQUARTER      N/A     32 N/A N/A NE7       30.50S

$$

NCZ095-097-098-100-101-280500-
SOUTHERN COAST

CITY           SKY/WX    TMP DP  RH WIND       PRES   REMARKS
BEAUFORT       PTCLDY    34  29  82 NE8       30.54R
CEDAR ISLAND     N/A     36 N/A N/A N7G23     30.56S
JACKSONVILLE   PTCLDY    36  30  79 NE12      30.53R
PINEY ISLAND     N/A    N/A N/A N/A MISG      30.54R
WILMINGTON     PTCLDY    36  30  79 NE8       30.50R


$$

NCZ011>013-027>030-043-044-078>080-089-090>093-098-280500-
COASTAL PLAIN

CITY           SKY/WX    TMP DP  RH WIND       PRES   REMARKS
AHOSKIE        CLEAR     28  24  85 N3        30.59R
CLINTON        CLEAR     37  27  66 N6        30.53R
ELIZABETHTOWN  PTCLDY    37  29  73 CALM      30.51R
GOLDSBORO      CLEAR     34  34  97 NE8       30.53R
GREENVILLE     CLEAR     32  28  86 NE3       30.57R
HAVELOCK       PTCLDY    34  28  79 NE10      30.56R
KENANSVILLE    CLEAR     35  27  72 NE5       30.54R
KINSTON        CLEAR     33  28  83 NE8       30.56R
NEW BERN       CLEAR     32  26  78 NE8       30.56R
RICHLANDS      PTCLDY    34  27  75 NE9       30.54R
ROCKY MOUNT    CLEAR     30  25  81 NE5       30.57R
WASHINGTON     CLEAR     29  26  89 NE3       30.57R
WHITEVILLE     PTCLDY    41  29  62 N5        30.50R

$$

AMZ130-135-150-152-154-156-158-170-250-252-270-ANZ085-086-088-633-658-670-280500-
MARINE OBSERVATIONS

STATION/POSITION TIME  TEMP    WIND        PRES    WAVE   SWELL
                       AIR SEA DIR/SP/G            HT/PER HT/PER
                 (UTC) (F)     (DEG/KT/KT) (MB)    (FT/S) (FT/S)
CHESAPEAKE LIGHT 0300   32      40/ 16/ 17 1035.6
64 E VA BEACH    0350   39 58   10/ 17/ 23 1033.8    7/11   5/11
DUCK             0300   34 35   30/ 17/ 20 1033.4
2 E DUCK         0341      35                N/A     5/10   2/11
10 NE DUCK       0322      36                N/A     6/11   2/11
OREGON INLET     0300   35 38   10/ 12/ 16 1033.9
HATTERAS CG      0300           30/ 15/ 19   N/A
CAPE LOOKOUT     0400   36      20/ 15/ 18 1033.5
BEAUFORT LAB     0300   35 41   30/  9/ 11 1032.5
27 SE WRIGHTSVLE NOT AVBL
5 SE WRIGHTSVLE  NOT AVBL
225 S CAPE HAT   0350   64 70   10/ 19/ 23 1027.2   10/10   7/10
41 SE CHARLESTON 0350   53 64   40/ 19/ 23 1030.1    5/ 6   2/10

$$


USA.gov is the U.S. government's official web portal to all federal, state and local government web resources and services.